Temp
24 24 24 24 24 24 24 24 24 24 24 23 23 23 23 23 23 23 23 23 23 23 23 23 23 23 23 23 24 24 24 24 23 23 23 23 23 23 24 24 24 24
24 24 24 24 24 24 24 24 24 24 24 24 24 24 24 24 24 24 23 23 23 23 23 23 23 23 23 23 23 23 24 24 23 23 24 23 23 23 24 24 24 24
24 24 24 24 24 24 24 24 24 24 24 24 24 24 24 24 24 24 24 23 23 23 24 23 23 23 23 23 23 23 23 24 23 23 24 23 23 23 24 24 24 24
24 24 24 24 24 24 24 24 24 24 24 24 24 24 24 24 24 24 24 24 24 24 24 24 23 23 23 23 23 23 23 23 23 24 24 23 23 23 23 24 24 24
24 24 24 24 24 24 24 24 24 24 24 24 24 24 25 25 24 24 24 24 24 24 24 24 24 23 23 23 23 23 23 23 24 24 24 23 23 23 23 23 23 24
24 24 24 24 24 25 25 24 24 24 24 24 25 25 25 25 25 25 24 24 24 24 24 24 24 23 23 24 24 24 24 24 24 24 24 23 23 24 24 23 23 23
24 24 24 24 24 24 24 24 24 25 25 24 25 25 25 25 25 25 25 24 24 24 24 24 24 24 24 24 24 24 24 24 24 24 24 23 23 24 24 23 23 23
24 24 24 24 24 24 24 24 24 25 25 25 25 25 25 25 25 25 25 25 24 24 24 24 24 24 24 24 24 24 24 24 24 24 24 23 23 24 24 24 23 23
23 23 24 24 24 24 24 24 24 24 25 25 25 25 25 25 25 25 25 25 24 24 24 24 24 25 24 24 24 24 24 24 24 24 24 23 24 24 24 23 23 24
23 23 23 24 24 24 24 24 24 24 24 25 25 25 25 25 25 25 25 25 24 24 24 24 24 25 25 25 25 25 25 25 24 24 24 24 24 24 24 24 24 24
23 23 23 23 24 24 24 24 24 24 24 24 24 25 25 25 25 25 25 24 24 24 24 24 25 25 25 25 25 25 25 25 24 24 24 24 24 24 24 24 24 24
23 23 23 23 24 24 24 24 24 24 24 24 24 24 24 24 25 25 25 25 24 24 24 24 25 25 25 25 25 25 25 25 24 24 24 24 24 24 24 24 24 24
23 23 23 23 23 24 24 24 24 24 24 24 24 24 24 24 24 24 24 25 25 24 24 24 25 25 25 25 25 25 25 25 24 24 24 24 24 24 24 24 24 24
22 23 23 23 23 23 23 23 23 23 24 24 24 24 24 24 25 25 24 24 24 24 24 24 25 25 25 25 25 25 25 25 25 25 24 24 24 25 24 24 24 24
23 23 23 22 23 23 23 23 23 23 23 23 23 23 24 24 24 24 24 24 24 24 24 24 24 24 25 25 25 25 25 25 25 25 25 24 24 25 25 25 25 25
22 22 22 22 22 22 22 22 22 22 23 23 23 23 23 24 24 24 24 24 24 24 24 24 24 24 25 25 25 25 25 25 25 25 25 25 25 25 25 25 25 25
21 21 21 21 21 21 21 22 22 22 22 22 23 23 23 23 23 24 24 24 24 24 24 24 25 25 25 25 25 25 25 25 25 25 25 25 25 25 25 25 25 25
20 21 20 20 20 20 21 21 21 22 22 22 22 22 23 23 23 23 23 23 24 24 24 24 25 25 25 25 25 25 25 25 24 24 24 25 25 25 25 25 25 25
20 20 20 20 20 20 21 21 21 22 22 22 22 22 22 23 23 23 23 23 23 23 24 24 24 25 25 25 25 25 25 25 24 24 24 25 25 25 25 25 25 25
20 20 20 20 20 20 20 21 21 21 22 22 22 22 22 22 22 22 22 22 23 23 24 24 24 25 25 25 25 25 25 25 24 24 24 24 24 24 25 25 25 25
18 19 19 19 20 20 20 20 20 21 21 21 21 21 21 21 21 21 22 22 22 23 23 24 24 24 25 25 25 25 25 24 24 24 24 24 24 25 25 25 25 25
18 18 18 18 19 19 19 19 19 20 20 20 20 21 20 20 21 21 21 22 22 22 22 23 23 23 24 24 24 25 24 24 24 24 24 24 24 25 25 25 25 25
18 18 18 18 18 18 18 19 19 19 19 20 20 20 20 20 20 21 21 21 21 22 22 22 23 22 23 23 24 24 24 23 23 24 24 24 24 24 25 25 25 25
18 18 18 18 17 17 18 18 18 19 19 19 20 20 20 20 20 20 20 20 21 21 22 22 22 22 22 22 22 23 23 23 23 23 23 23 23 24 24 24 24 24
17 17 17 17 17 17 17 18 18 18 19 19 19 19 19 19 20 20 20 20 20 21 21 21 21 21 21 21 21 22 22 22 22 22 22 22 22 22 23 23 23 24
18 18 17 17 17 17 17 18 18 18 19 19 19 19 19 19 20 20 20 20 20 20 20 20 20 20 20 20 20 21 21 21 21 21 21 22 22 22 22 22 22 22
Height
861 862 864 865 867 868 869 869 870 871 872 873 874 875 875 876 877 877 878 879 880 881 881 882 882 883 883 883 883 884 885 886 886 887 887 887 888 888 888 888 888 888
859 861 862 864 865 866 867 868 869 870 870 871 872 873 874 875 875 876 877 878 879 880 881 881 882 882 882 882 883 884 884 885 886 886 887 887 887 887 888 888 888 888
858 859 861 862 864 865 866 867 868 868 869 870 871 872 873 874 874 875 876 877 878 879 880 880 881 881 881 882 882 883 884 884 885 885 886 886 887 887 887 887 887 887
857 858 859 861 862 864 865 866 867 867 868 869 869 871 871 873 873 874 875 876 877 878 878 879 880 880 881 881 882 882 883 883 884 884 885 885 885 886 886 887 887 887
855 856 858 860 861 862 863 864 865 866 867 868 868 869 870 871 872 873 874 874 875 876 877 878 879 879 880 880 881 882 882 882 883 883 883 884 884 884 885 885 886 886
853 855 856 858 859 860 862 862 864 865 866 867 867 868 869 870 871 871 872 873 874 875 876 877 878 878 879 879 880 880 881 882 882 882 882 882 883 883 883 884 884 885
852 853 854 856 857 859 860 861 862 863 864 865 866 867 868 869 870 870 871 872 873 874 874 876 877 877 878 878 879 880 880 880 880 881 881 881 882 882 882 883 883 884
850 851 853 854 856 857 858 859 861 862 863 864 865 866 867 868 869 870 870 871 872 873 873 874 875 876 877 877 878 878 879 879 879 879 880 880 880 881 881 881 882 882
849 850 851 853 854 855 856 858 859 860 861 863 864 865 866 867 868 869 870 870 871 872 872 873 874 874 875 876 876 877 877 878 878 878 879 879 879 879 880 880 880 880
847 848 850 851 853 854 855 856 858 859 860 861 862 863 864 865 867 868 869 869 870 871 871 872 873 873 874 874 875 875 876 876 877 877 877 878 878 878 878 879 879 879
846 847 848 849 851 852 853 855 856 857 858 859 860 861 862 863 865 866 867 868 869 869 870 871 871 872 873 873 873 874 874 875 875 875 876 876 876 876 876 877 877 877
844 845 846 847 849 850 852 853 854 855 856 857 858 859 860 861 862 864 865 866 867 868 868 869 870 870 871 871 872 873 873 873 874 874 874 874 875 875 875 875 875 875
842 843 844 846 847 848 850 851 852 853 854 856 857 858 859 860 860 861 862 863 865 866 866 867 868 868 869 870 870 871 871 872 872 872 873 873 873 873 873 874 874 874
839 841 843 844 845 846 848 849 850 851 852 853 855 855 857 858 859 860 860 861 862 863 864 865 865 866 867 867 868 869 869 870 870 871 871 871 871 872 872 872 872 872
836 837 840 842 843 844 845 847 848 849 850 851 852 853 854 855 857 858 859 859 860 860 861 862 862 863 864 865 866 867 867 868 868 868 869 869 869 870 870 870 870 871
834 835 837 839 841 842 843 844 846 847 848 849 849 851 852 852 854 855 856 857 858 858 859 859 860 860 861 862 863 864 865 866 866 866 866 867 867 867 868 868 868 869
832 834 836 837 839 840 841 842 843 845 846 847 847 848 849 850 851 852 853 854 855 855 856 857 857 858 858 859 860 861 863 863 864 864 864 864 865 865 865 865 866 866
830 832 834 835 836 838 838 838 839 841 843 844 845 846 847 848 849 849 850 851 852 853 854 854 855 855 856 857 858 859 860 861 861 862 862 862 862 862 862 863 863 864
829 830 832 833 834 835 835 836 836 838 840 841 842 844 845 845 847 847 848 849 850 850 851 852 852 853 854 855 856 857 858 858 859 859 860 860 860 860 860 860 860 861
828 828 829 830 831 832 834 835 836 836 838 839 840 841 842 843 844 845 846 847 848 848 849 850 850 850 851 852 853 854 855 856 856 857 857 857 857 857 857 857 857 858
828 828 828 828 829 831 833 835 836 836 836 837 837 838 840 841 842 843 844 845 846 846 847 848 848 848 849 849 850 851 852 853 853 853 854 854 854 854 855 855 855 855
828 828 828 827 828 829 831 834 835 835 834 834 834 836 837 838 839 841 842 842 843 844 845 846 846 846 846 847 848 848 849 850 850 850 851 851 851 851 852 852 852 852
829 830 829 828 828 828 830 832 833 834 833 833 833 834 835 837 838 839 839 840 841 842 843 844 844 844 844 845 845 845 846 847 847 847 847 847 848 848 849 849 849 849
830 831 830 830 829 829 829 830 831 832 832 832 833 833 834 835 836 837 838 838 839 840 841 842 843 843 843 843 843 843 843 844 844 845 845 845 845 845 845 846 846 846
832 832 831 831 830 830 829 830 831 832 832 833 833 834 834 835 835 836 837 837 837 838 839 840 842 842 842 842 842 842 842 842 842 842 843 843 843 843 843 843 843 843
834 834 833 832 831 831 830 831 833 833 832 833 834 835 835 835 835 836 836 836 836 837 837 837 839 841 842 843 843 843 842 841 841 841 841 841 841 841 841 841 841 841
Wind_Speed
23 21 20 18 17 17 17 17 16 16 16 14 13 12 12 12 11 11 12 11 11 10 8 8 8 7 7 6 6 5 4 3 4 4 4 4 4 4 5 5 5 4
25 23 21 19 18 18 17 17 17 17 16 15 14 13 12 11 10 11 13 12 11 9 8 7 7 7 7 6 6 5 5 4 4 4 4 4 5 5 5 5 5 5
26 24 22 20 18 17 17 18 18 17 16 15 14 13 12 10 9 10 12 12 11 9 8 7 6 6 7 7 7 6 5 4 4 4 5 5 5 4 5 5 5 5
27 26 24 21 18 17 17 17 18 17 16 15 14 13 12 11 10 9 10 11 10 9 7 7 7 6 7 8 8 7 6 5 5 5 5 5 5 5 5 5 5 5
27 27 26 23 20 18 17 16 16 16 16 14 13 12 11 10 10 9 10 9 9 8 7 6 7 7 7 8 8 8 7 6 6 6 6 6 5 5 5 5 6 6
27 27 27 25 23 20 17 16 15 15 15 13 12 12 11 10 9 9 9 9 8 7 7 6 6 7 7 8 8 8 7 7 6 7 7 7 6 6 6 6 7 7
26 25 26 26 24 21 18 16 16 15 14 13 12 12 11 10 9 9 9 9 8 8 8 7 7 7 7 8 9 9 9 8 8 8 8 8 7 7 7 7 8 8
23 23 24 25 23 20 19 17 16 16 15 13 12 12 11 10 10 9 9 8 9 9 8 8 8 7 8 9 10 11 10 9 9 9 9 9 9 9 8 8 8 9
19 19 21 22 21 19 18 16 15 15 16 15 12 10 11 11 10 10 10 9 9 9 9 9 9 9 9 10 10 11 11 10 9 10 10 9 9 9 8 8 8 9
17 17 17 18 18 18 17 16 14 14 15 15 12 10 10 11 11 11 10 10 10 10 9 9 9 9 10 11 11 11 11 11 10 10 10 10 9 9 8 8 8 9
15 15 15 17 18 17 17 16 14 13 14 15 13 12 11 11 11 11 11 11 10 10 10 10 10 10 10 11 11 11 11 11 11 12 12 11 11 11 10 9 9 9
17 16 16 17 17 17 16 15 15 14 14 14 14 13 12 11 11 11 11 11 10 10 10 10 11 11 12 12 12 12 13 13 12 13 13 13 13 13 12 12 11 11
17 18 19 18 17 17 16 15 15 14 13 13 13 13 13 12 11 11 12 12 12 11 11 11 12 12 13 13 13 14 14 14 14 14 14 15 15 15 13 13 12 12
17 17 18 19 19 20 18 16 14 13 13 13 13 14 13 13 12 12 12 12 12 13 13 13 13 13 14 14 15 15 15 15 16 16 15 15 16 16 15 14 14 13
21 20 19 20 21 21 20 18 16 14 14 15 15 14 13 13 13 12 12 12 12 13 14 13 13 13 14 14 14 15 15 15 16 17 16 16 17 17 17 17 17 15
22 21 20 20 20 20 20 19 17 16 16 16 16 16 15 16 15 14 13 12 12 13 13 12 12 13 14 14 13 14 15 16 17 18 18 18 18 19 18 18 18 17
22 21 21 20 17 16 16 16 15 15 16 16 17 17 17 18 17 17 16 13 12 12 12 12 12 13 15 14 13 14 15 16 18 18 18 19 19 20 19 19 18 17
19 20 20 18 14 14 16 17 16 15 16 17 17 17 17 17 17 18 17 15 14 13 12 12 12 14 15 15 14 14 14 16 17 16 16 17 18 19 19 19 19 18
16 17 18 18 16 16 20 21 19 18 18 18 18 17 17 17 17 17 17 16 14 14 14 12 12 14 15 15 15 14 13 15 17 17 16 16 17 18 19 20 20 20
13 14 16 18 17 15 17 18 19 19 19 19 18 16 15 17 18 17 17 17 16 16 16 14 14 16 16 15 15 15 14 15 16 17 18 17 18 19 19 20 21 21
6 6 8 12 15 15 14 13 15 16 16 15 15 13 11 13 14 13 14 16 16 16 16 15 15 16 17 16 17 17 16 15 15 16 17 18 19 20 20 21 21 22
10 8 7 8 12 16 15 12 10 11 11 11 11 9 8 8 8 8 9 10 11 12 13 12 12 15 17 16 17 17 16 16 15 15 15 16 18 18 19 20 21 22
13 11 10 10 12 15 16 13 11 10 10 10 9 8 7 6 6 7 7 7 7 8 10 10 9 12 14 15 16 16 16 15 16 15 15 16 16 16 16 17 18 19
13 11 9 9 9 11 12 13 13 12 11 10 10 9 8 6 6 6 5 4 4 5 7 8 8 10 11 12 13 15 15 15 15 15 15 15 14 14 15 15 14 15
14 12 10 9 8 8 7 8 9 10 11 10 8 8 7 6 6 6 5 4 4 3 2 4 6 8 8 9 11 12 13 14 14 13 13 12 10 10 12 12 13 13
15 14 14 12 11 10 8 6 7 8 9 9 9 7 6 5 5 6 5 4 4 4 3 2 0 2 4 5 7 10 11 11 10 9 9 9 9 8 8 9 9 9
Wind_Direction
215 217 219 221 222 222 224 224 223 223 222 221 220 222 224 225 224 220 220 220 219 221 228 232 231 229 226 225 224 227 236 236 233 243 251 250 256 260 254 248 243 242
215 217 218 219 222 224 227 229 229 228 227 226 223 223 226 227 226 223 220 221 222 225 232 235 235 235 234 235 236 236 241 241 235 242 251 256 262 263 257 254 250 248
217 217 218 217 220 224 228 232 233 232 229 229 227 224 225 226 227 224 220 220 222 228 239 243 240 239 237 237 239 239 242 246 242 245 257 263 266 267 263 262 259 255
220 220 219 217 217 223 229 233 233 230 228 229 228 224 222 224 227 224 220 219 222 230 243 249 246 243 241 238 237 239 247 255 256 256 263 267 268 270 268 267 268 265
224 223 221 220 221 224 229 231 229 228 228 229 228 225 224 226 227 224 221 220 225 234 244 252 251 248 247 243 238 243 251 255 260 267 270 269 268 266 267 270 272 272
225 225 223 223 225 226 228 229 229 229 230 228 227 226 228 230 229 226 224 223 224 231 234 243 251 250 250 249 245 248 254 254 260 269 270 267 263 261 265 272 274 275
225 226 225 225 226 228 228 229 232 234 233 231 230 230 231 233 231 226 226 225 225 227 229 238 251 255 256 256 255 259 264 265 266 271 269 265 264 265 266 270 274 274
222 224 226 225 224 226 227 227 232 236 237 236 234 234 235 234 229 226 229 229 229 232 234 239 250 258 261 264 265 268 270 266 265 269 270 266 266 269 267 268 273 274
217 220 225 225 223 224 224 224 228 234 238 236 232 232 236 235 232 231 235 236 236 240 242 244 249 255 261 268 272 275 273 267 263 267 268 264 264 267 266 265 269 271
216 218 220 222 222 224 225 224 224 228 234 234 227 224 230 235 236 238 243 246 246 248 251 253 255 257 262 267 272 276 276 271 268 271 271 266 264 266 266 266 267 270
221 219 218 220 223 226 227 226 226 226 231 231 226 222 224 230 237 241 246 251 252 252 255 259 263 266 269 270 271 274 276 272 270 272 274 273 271 272 271 271 268 268
226 222 224 224 226 229 229 227 227 226 229 230 227 225 225 226 230 237 244 252 258 260 260 264 267 271 274 275 273 273 276 275 271 271 274 276 276 275 273 271 269 267
232 233 236 232 230 232 230 229 230 230 229 227 226 228 229 226 226 232 241 249 256 262 265 270 273 274 276 278 278 276 277 278 275 272 272 274 276 276 273 270 267 267
233 239 241 237 236 238 237 234 231 229 228 227 229 231 232 232 231 234 241 245 249 257 264 267 271 273 274 277 280 281 279 278 277 277 273 271 274 276 276 273 270 267
235 238 240 240 241 241 238 235 232 232 233 233 233 231 230 231 233 237 241 244 248 255 260 260 260 262 266 272 278 281 281 278 277 278 275 271 273 275 275 276 276 272
236 236 236 236 236 235 233 232 230 231 232 235 236 233 231 232 235 237 238 240 245 250 255 255 253 255 261 267 271 275 278 276 276 280 280 276 276 275 275 276 276 274
233 233 230 226 224 223 222 222 223 225 228 232 235 235 235 237 239 238 236 234 235 239 245 246 248 255 262 267 270 271 274 274 274 278 281 280 278 276 275 276 276 275
227 228 225 220 213 210 210 211 212 217 224 229 231 232 234 235 236 238 239 237 236 237 241 242 245 253 261 267 270 271 275 274 271 269 271 273 275 274 276 278 278 278
222 224 222 219 215 217 221 218 213 212 219 226 230 233 236 237 238 240 241 239 238 240 242 242 246 252 257 264 269 271 275 275 271 266 263 264 267 270 274 278 280 282
214 219 222 220 219 225 233 231 223 221 224 229 232 234 237 240 241 242 242 242 243 244 245 245 247 250 251 257 265 270 274 274 271 267 263 262 265 267 270 274 278 281
154 182 199 205 208 213 220 224 224 222 222 223 224 224 228 235 239 241 244 247 246 245 247 249 252 254 255 257 261 266 268 268 268 266 264 263 266 269 272 273 276 278
92 92 101 136 168 178 180 185 197 203 203 202 203 207 214 222 229 230 233 239 240 242 247 250 255 259 259 257 257 258 259 259 261 265 266 266 268 272 274 276 277 277
95 98 100 111 128 136 138 141 148 157 168 173 172 177 184 189 201 211 215 222 230 239 248 251 257 262 258 252 249 249 250 252 255 260 262 265 269 273 276 278 279 280
91 100 104 104 102 105 110 114 114 119 130 140 146 149 152 157 173 186 192 200 215 236 247 249 256 265 262 252 247 245 244 245 249 254 258 261 265 268 271 273 275 276
83 88 90 86 79 78 88 97 98 98 98 101 110 119 123 129 137 141 144 155 166 173 205 239 256 268 270 262 254 250 246 245 247 253 259 262 264 266 269 271 272 274
83 83 82 81 81 80 76 74 82 90 91 91 96 100 101 106 117 118 114 115 125 127 117 113 2 337 341 321 290 271 260 253 250 253 258 263 267 271 274 276 278 281